World > North America > United States > Illinois > Shelbyville

Hourly Shelbyville, IL Regional Weather

Feedback E-mail the Weather

Quick WX

Shelbyville, IL Weather Maps

°F °C°F °C
Shelbyville Weather Map
UTC Time: 8/17/2022, 01:19
Your Time:

Shelbyville, IL Regional Weather

Expires:202208170200;;168396
ASUS43 KLOT 170110
RWRIL 

ILLINOIS REGIONAL WEATHER ROUNDUP
NATIONAL WEATHER SERVICE CHICAGO/ROMEOVILLE IL
800 PM CDT TUE AUG 16 2022

NOTE: "FAIR" INDICATES FEW OR NO CLOUDS BELOW 12,000 FEET WITH NO
SIGNIFICANT WEATHER AND/OR OBSTRUCTIONS TO VISIBILITY.

* THESE STATIONS ARE NOT UNDER NWS QUALITY CONTROL. THEY ALSO MAY NOT
  REPORT WEATHER SUCH AS PRECIPITATION OR FOG.


ILZ028>032-037-038-041>044-048-051>054-059>061-170200-
CENTRAL ILLINOIS
  
CITY           SKY/WX    TMP DP  RH WIND       PRES   REMARKS
PONTIAC        CLEAR     68  60  74 NE7       30.09R                  
BLOOMINGTON    CLEAR     71  62  73 NE6       30.08S                  
DECATUR        CLEAR     69  66  90 N7        30.05S                  
PEORIA         CLEAR     75  58  55 NE6       30.06S                  
LACON*         CLEAR     71  60  68 E6        30.06S                  
LINCOLN*       CLEAR     71  65  81 NE3       30.05S                  
SPRINGFIELD    PTCLDY    74  62  66 NE5       30.04S                  
TAYLORVILLE    CLEAR     72  63  72 NE3       30.04S                  
$$


SKY/WX - Weather  TMP - Temperature  DP - Dew Point  RH - Humidity
WIND - Wind Direction/Speed PRES - Barometric Pressure VSB - Visibility
WCI - Wind Chill Index E13G22 Wind - East Wind 13 mph/Gusts of 22 mph

Trending Headlines

Shelbyville Radar Loop



Shelbyville Quick Facts


National Two Day Weather Forecast


E-mail the Shelbyville Weather Forecast

Voice your opinion or tell us about page issues...